Flag for Germany Weather past 2 weeks in Neuburg an der Donau, Bavaria, Germany

Now
43 °F

Quite cool.


Feels Like: 37 °F
Forecast: 40 / 52 °F
Wind: 10 mph from West

Location: Neuburg / Donau

Current Time: Mar 30, 2015 at 10:10:22 PM

Latest Report: Mar 30, 2015 at 9:20 PM


Visibility: N/A

Pressure: 29.89 "Hg

Humidity: 66%

Dew point: 32 °F

Location of Neuburg an der DonauLocation

Historic Weather in Neuburg an der Donau — Graph

°F

Neuburg an der Donau temperature yesterday

Maximum temperature yesterday: 54 °F (at 12:20 PM)
Minimum temperature yesterday: 45 °F (at 12:20 AM)
Average temperature yesterday: 50 °F

Past Weeks' High & Low Weather Summary

 TemperatureHumidityPressure
High63 °F (Mar 17, 3:20 PM)100% (Mar 21, 6:20 AM)30.27 "Hg (Mar 21, 6:20 AM)
Low25 °F (Mar 21, 6:20 AM)31% (Mar 20, 5:20 PM)29.50 "Hg (Mar 30, 12:20 AM)
Average44 °F69%29.99 "Hg
* Reported Mar 15 7:20 PM — Mar 30 8:20 PM, Neuburg an der Donau, Weather by CustomWeather, © 2015

Note: Actual official high and low records may vary slightly from our data, if they occured in-between our weather recording intervals... More about our weather records

Advertising

Neuburg an der Donau weather history for previous 24 hours

 ConditionsComfort  
Time TempWeatherWind HumidityBarometerVisibility
8:20 PM
Mon, Mar 30
43 °FQuite cool.10 mph61%29.86 "HgN/A
7:20 PM45 °FQuite cool.13 mph61%29.83 "HgN/A
6:20 PM46 °FCool.20 mph53%29.77 "HgN/A
5:20 PM46 °FScattered clouds.23 mph57%29.74 "HgN/A
4:20 PM48 °FScattered clouds.22 mph54%29.71 "HgN/A
3:20 PM43 °FBroken clouds.17 mph81%29.71 "HgN/A
2:20 PM46 °FBroken clouds.20 mph76%29.68 "HgN/A
1:20 PM43 °FPartly sunny.16 mph87%29.68 "HgN/A
12:20 PM45 °FPartly sunny.16 mph76%29.62 "HgN/A
11:20 AM43 °FPartly sunny.18 mph81%29.62 "HgN/A
10:20 AM43 °FPartly sunny.18 mph81%29.59 "HgN/A
9:20 AM45 °FLight rain. Mostly cloudy.17 mph87%29.53 "HgN/A
8:20 AM45 °FLight rain. Partly sunny.15 mph87%29.53 "HgN/A
7:20 AM45 °FLight rain. Passing clouds.20 mph87%29.50 "HgN/A
6:20 AM45 °FRain. Mostly cloudy.8 mph87%29.50 "HgN/A
5:20 AM45 °FQuite cool.18 mph87%29.53 "HgN/A
4:20 AM46 °FCool.26 mph87%29.50 "HgN/A
3:20 AM48 °FCool.22 mph82%29.50 "HgN/A
2:20 AMN/A20 mphN/AN/AN/A
1:20 AM50 °FCool.23 mph82%29.50 "HgN/A
12:20 AM50 °FCool.31 mph82%29.50 "HgN/A
11:20 PM
Sun, Mar 29
50 °FCool.23 mph82%29.53 "HgN/A
10:20 PM50 °FCool.21 mph82%29.56 "HgN/A
Weather by CustomWeather, © 2015

See weather overviewHow to use our weather pages